Weather History for South Lake Tahoe, CA

Change the Weather History Date:

Tuesday, March 5, 2013

  Actual Average Record
Temperature  
Mean Temperature 39 °F 34 °F  
Max Temperature 49 °F 47 °F 59 °F (1987)
Min Temperature 29 °F 21 °F -9 °F (1976)
Degree Days  
Heating Degree Days 26 31  
Month to date heating degree days 124 158  
Since 1 July heating degree days 5142 5395  
Cooling Degree Days 0 0  
Month to date cooling degree days 0 0  
Year to date cooling degree days 0 0  
Moisture  
Dew Point 25 °F    
Average Humidity 60    
Maximum Humidity 85    
Minimum Humidity 34    
Precipitation  
Precipitation T in - 1.41 in (1991)
Month to date precipitation 0.14  
Year to date precipitation 1.04  
Sea Level Pressure  
Sea Level Pressure 29.83 in    
Wind  
Wind Speed 9 mph (SSW)    
Max Wind Speed 31 mph    
Max Gust Speed 43 mph    
Visibility 9 miles    
Events Snow    
T = Trace of Precipitation, MM = Missing Value Source: NWS Daily Summary

Daily Weather History Graph

Daily Weather History Graph

Search for Another Location

Airport:

Trip Planner

Search our weather history database for the weather conditions in past years. The results will help you decide how hot, cold, wet, or windy it might be!

Date:

Astronomy

Mar. 05, 2013 Rise Set
Actual Time 6:26 AM PST 5:57 PM PST
Civil Twilight 5:59 AM PST 6:23 PM PST
Nautical Twilight 5:28 AM PST 6:54 PM PST
Astronomical Twilight 4:57 AM PST 7:25 PM PST
Moon 1:40 AM PST (3/5) 11:43 AM PST (3/5)
Length of Visible Light 12h 24m
Length of Day
11h 31m
Last Quarter, 39% of the Moon is Illuminated
Mar 5
Last Quarter
Mar 11
New
Mar 19
First Quarter
Mar 27
Full
Apr 2
Last Quarter

Hourly Weather History & Observations

Time (PST) Temp. Windchill Dew Point Humidity Pressure Visibility Wind Dir Wind Speed Gust Speed Precip Events Conditions
12:53 AM 28.9 °F - 25.0 °F 85% 30.01 in 10.0 mi Calm Calm - N/A   Clear
1:53 AM 30.0 °F - 26.1 °F 85% 29.98 in 10.0 mi Calm Calm - N/A   Clear
2:53 AM 30.0 °F - 25.0 °F 82% 29.96 in 10.0 mi Calm Calm - N/A   Clear
5:53 AM 39.0 °F 33.4 °F 25.0 °F 57% 29.93 in 10.0 mi South 8.1 mph - N/A   Partly Cloudy
6:53 AM 39.0 °F 31.8 °F 25.0 °F 57% 29.94 in 10.0 mi SSW 11.5 mph 18.4 mph N/A   Clear
7:53 AM 39.9 °F 35.8 °F 26.1 °F 58% 29.93 in 10.0 mi Variable 5.8 mph - N/A   Clear
8:53 AM 44.1 °F 37.1 °F 26.1 °F 49% 29.93 in 10.0 mi SSW 15.0 mph 29.9 mph N/A   Mostly Cloudy
9:53 AM 46.9 °F - 26.1 °F 44% 29.91 in 10.0 mi South 17.3 mph 27.6 mph N/A   Scattered Clouds
10:53 AM 46.9 °F - 25.0 °F 42% 29.90 in 10.0 mi SSW 18.4 mph 32.2 mph N/A   Scattered Clouds
11:53 AM 48.0 °F - 25.0 °F 41% 29.87 in 10.0 mi SSW 16.1 mph 35.7 mph N/A   Scattered Clouds
12:53 PM 48.9 °F - 24.1 °F 38% 29.85 in 10.0 mi South 11.5 mph 28.8 mph N/A   Mostly Cloudy
1:53 PM 48.0 °F - 26.1 °F 42% 29.82 in 10.0 mi South 19.6 mph 24.2 mph N/A   Mostly Cloudy
2:53 PM 46.9 °F - 25.0 °F 42% 29.80 in 10.0 mi SSW 11.5 mph 24.2 mph N/A   Mostly Cloudy
3:53 PM 46.0 °F 39.9 °F 25.0 °F 44% 29.78 in 10.0 mi South 13.8 mph 24.2 mph N/A   Mostly Cloudy
4:53 PM 44.1 °F 36.8 °F 24.1 °F 45% 29.75 in 10.0 mi South 16.1 mph 39.1 mph N/A   Mostly Cloudy
5:53 PM 42.1 °F 34.2 °F 24.1 °F 49% 29.75 in 10.0 mi South 16.1 mph 28.8 mph N/A   Overcast
6:53 PM 41.0 °F 35.8 °F 24.1 °F 51% 29.75 in 10.0 mi SSW 8.1 mph 25.3 mph N/A   Overcast
7:53 PM 39.9 °F 31.8 °F 23.0 °F 51% 29.71 in 10.0 mi South 15.0 mph 31.1 mph N/A   Partly Cloudy
8:53 PM 41.0 °F 31.1 °F 16.0 °F 36% 29.68 in 10.0 mi South 23.0 mph 41.4 mph N/A   Clear
9:53 PM 39.9 °F 31.4 °F 21.0 °F 47% 29.68 in 10.0 mi SSW 16.1 mph 28.8 mph N/A   Clear
10:53 PM 41.0 °F 31.4 °F 24.1 °F 51% 29.68 in 10.0 mi South 21.9 mph 39.1 mph N/A   Overcast
11:43 PM 37.4 °F 27.2 °F 26.6 °F 65% 29.78 in 2.5 mi SSW 19.6 mph 33.4 mph 0.00 in Snow Light Snow
11:53 PM 35.1 °F 25.2 °F 28.0 °F 76% 29.73 in 1.0 mi SSW 16.1 mph 38.0 mph 0.00 in Snow Light Snow